Location: North Evanston
(42.0634°N, 87.6976°W)
Time: 20:43:21
(UTC+00:00)

Vanguard 2 Rocket - Pass Details

Date: 16 May 2026
Orbit: 553 x 3286 km, 32.9° (Epoch: 6 June)

Event Time Altitude Azimuth Distance (km) Brightness Sun altitude
Rises 14:16:14 0° 199° (SSW) 4,472 10.4 40.1°
Reaches altitude 10° 14:19:33 10° 186° (S) 3,873 10.3 40.8°
Maximum altitude 14:27:47 25° 136° (SE) 3,643 11.1 42.2°
Drops below altitude 10° 14:39:27 10° 90° (E) 5,658 11.9 44.3°
Sets 14:45:40 0° 80° (E) 7,004 12.0 45.5°
